| time (UTC) | temp C | wind direction | speed KPH | gust KPH | rain 1hr cm | rain 24hr cm | rain mn cm | humidity % | barometer mb |
| 20260507110238 | 11 | 199 | 0.0 | 3.2 | 0.00 | 0.00 | 0.00 | 75 | 1022.4 |
| 20260507105734 | 11 | 200 | 0.0 | 1.6 | 0.00 | 0.00 | 0.00 | 76 | 1022.7 |
| 20260507105230 | 11 | 201 | 0.0 | 0.0 | 0.00 | 0.00 | 0.00 | 76 | 1022.6 |
| 20260507104728 | 11 | 202 | 0.0 | 1.6 | 0.00 | 0.00 | 0.00 | 76 | 1022.5 |
| 20260507104224 | 11 | 214 | 0.0 | 1.6 | 0.00 | 0.00 | 0.00 | 76 | 1022.6 |
| 20260507103720 | 11 | 203 | 0.0 | 0.0 | 0.00 | 0.00 | 0.00 | 76 | 1022.7 |
| 20260507103217 | 11 | 200 | 0.0 | 0.0 | 0.00 | 0.00 | 0.00 | 77 | 1022.6 |
| 20260507102713 | 11 | 200 | 0.0 | 0.0 | 0.00 | 0.00 | 0.00 | 76 | 1022.7 |
| 20260507102210 | 11 | 191 | 0.0 | 0.0 | 0.00 | 0.00 | 0.00 | 77 | 1022.4 |
| 20260507101706 | 11 | 205 | 0.0 | 0.0 | 0.00 | 0.00 | 0.00 | 77 | 1022.6 |
| 20260507101201 | 11 | 205 | 0.0 | 0.0 | 0.00 | 0.00 | 0.00 | 77 | 1022.9 |
| 20260507100659 | 11 | 199 | 0.0 | 1.6 | 0.00 | 0.00 | 0.00 | 76 | 1022.9 |
| 20260507100157 | 12 | 195 | 0.0 | 0.0 | 0.00 | 0.00 | 0.00 | 76 | 1022.7 |
| 20260507095655 | 12 | 203 | 0.0 | 1.6 | 0.00 | 0.00 | 0.00 | 78 | 1022.8 |
| 20260507095151 | 12 | 198 | 0.0 | 1.6 | 0.00 | 0.00 | 0.00 | 78 | 1022.8 |
| 20260507094648 | 12 | 209 | 0.0 | 0.0 | 0.00 | 0.00 | 0.00 | 77 | 1022.9 |
| 20260507094144 | 12 | 196 | 0.0 | 0.0 | 0.00 | 0.00 | 0.00 | 78 | 1022.6 |
| 20260507093642 | 12 | 203 | 0.0 | 0.0 | 0.00 | 0.00 | 0.00 | 78 | 1022.9 |
| 20260507093141 | 12 | 203 | 0.0 | 0.0 | 0.00 | 0.00 | 0.00 | 77 | 1023.0 |
| 20260507092637 | 12 | 201 | 0.0 | 0.0 | 0.00 | 0.00 | 0.00 | 77 | 1023.0 |
| 20260507092133 | 12 | 202 | 0.0 | 1.6 | 0.00 | 0.00 | 0.00 | 77 | 1023.0 |
| 20260507091630 | 12 | 255 | 3.2 | 3.2 | 0.00 | 0.00 | 0.00 | 77 | 1023.2 |
| 20260507091126 | 12 | 199 | 0.0 | 3.2 | 0.00 | 0.00 | 0.00 | 76 | 1023.3 |
| 20260507090622 | 12 | 166 | 0.0 | 3.2 | 0.00 | 0.00 | 0.00 | 76 | 1023.2 |
| 20260507090120 | 12 | 200 | 1.6 | 3.2 | 0.00 | 0.00 | 0.00 | 76 | 1023.0 |
| 20260507085616 | 12 | 195 | 0.0 | 1.6 | 0.00 | 0.00 | 0.00 | 76 | 1023.0 |
| 20260507085113 | 12 | 200 | 0.0 | 4.8 | 0.00 | 0.00 | 0.00 | 76 | 1023.2 |
| 20260507084610 | 12 | 223 | 1.6 | 3.2 | 0.00 | 0.00 | 0.00 | 75 | 1023.0 |
| 20260507084107 | 12 | 194 | 0.0 | 1.6 | 0.00 | 0.00 | 0.00 | 76 | 1023.2 |
| 20260507083603 | 12 | 190 | 0.0 | 1.6 | 0.00 | 0.00 | 0.00 | 76 | 1023.1 |
| 20260507083100 | 12 | 186 | 0.0 | 1.6 | 0.00 | 0.00 | 0.00 | 76 | 1023.1 |
| 20260507082556 | 12 | 195 | 0.0 | 0.0 | 0.00 | 0.00 | 0.00 | 76 | 1022.9 |
| 20260507082053 | 12 | 196 | 0.0 | 1.6 | 0.00 | 0.00 | 0.00 | 76 | 1023.0 |
| 20260507081549 | 12 | 199 | 0.0 | 1.6 | 0.00 | 0.00 | 0.00 | 77 | 1023.0 |
| 20260507081046 | 12 | 203 | 0.0 | 1.6 | 0.00 | 0.00 | 0.00 | 77 | 1023.1 |
| 20260507080541 | 12 | 199 | 0.0 | 0.0 | 0.00 | 0.00 | 0.00 | 78 | 1023.0 |
| 20260507080033 | 12 | 200 | 0.0 | 3.2 | 0.00 | 0.00 | 0.00 | 78 | 1023.2 |
| 20260507075528 | 12 | 205 | 0.0 | 0.0 | 0.00 | 0.00 | 0.00 | 78 | 1023.0 |
| 20260507075024 | 12 | 201 | 0.0 | 0.0 | 0.00 | 0.00 | 0.00 | 78 | 1023.0 |
| 20260507074521 | 12 | 202 | 0.0 | 0.0 | 0.00 | 0.00 | 0.00 | 78 | 1023.0 |
| 20260507074020 | 12 | 213 | 0.0 | 1.6 | 0.00 | 0.00 | 0.00 | 78 | 1023.1 |
| 20260507073516 | 12 | 198 | 0.0 | 1.6 | 0.00 | 0.00 | 0.00 | 78 | 1023.1 |
| 20260507073012 | 12 | 198 | 0.0 | 1.6 | 0.00 | 0.00 | 0.00 | 78 | 1023.2 |
| 20260507072510 | 12 | 198 | 0.0 | 1.6 | 0.00 | 0.00 | 0.00 | 78 | 1023.2 |
| 20260507072007 | 12 | 200 | 0.0 | 1.6 | 0.00 | 0.00 | 0.00 | 78 | 1022.9 |
| 20260507071504 | 12 | 202 | 0.0 | 0.0 | 0.00 | 0.00 | 0.00 | 78 | 1022.9 |
| 20260507071000 | 12 | 198 | 0.0 | 0.0 | 0.00 | 0.00 | 0.00 | 78 | 1023.1 |
| 20260507070458 | 12 | 209 | 1.6 | 1.6 | 0.00 | 0.00 | 0.00 | 78 | 1022.9 |
| 20260507065954 | 12 | 200 | 3.2 | 4.8 | 0.00 | 0.00 | 0.00 | 77 | 1022.9 |
| 20260507065451 | 12 | 201 | 0.0 | 1.6 | 0.00 | 0.00 | 0.00 | 77 | 1022.8 |
| 20260507064948 | 12 | 193 | 0.0 | 1.6 | 0.00 | 0.00 | 0.00 | 78 | 1022.9 |
| 20260507064446 | 12 | 178 | 0.0 | 1.6 | 0.00 | 0.00 | 0.00 | 78 | 1022.9 |
| 20260507063944 | 12 | 200 | 0.0 | 1.6 | 0.00 | 0.00 | 0.00 | 77 | 1023.0 |
| 20260507063441 | 12 | 202 | 1.6 | 3.2 | 0.00 | 0.00 | 0.00 | 78 | 1023.0 |
| 20260507062938 | 12 | 215 | 1.6 | 4.8 | 0.00 | 0.00 | 0.00 | 78 | 1023.0 |
| 20260507062435 | 12 | 197 | 0.0 | 1.6 | 0.00 | 0.00 | 0.00 | 78 | 1023.1 |
| 20260507061932 | 12 | 198 | 0.0 | 1.6 | 0.00 | 0.00 | 0.00 | 78 | 1023.1 |
| 20260507061430 | 12 | 200 | 0.0 | 1.6 | 0.00 | 0.00 | 0.00 | 78 | 1023.1 |
| 20260507060928 | 12 | 199 | 0.0 | 3.2 | 0.00 | 0.00 | 0.00 | 78 | 1023.1 |
| 20260507060425 | 12 | 223 | 1.6 | 4.8 | 0.00 | 0.00 | 0.00 | 78 | 1023.0 |
| 20260507055921 | 12 | 189 | 0.0 | 4.8 | 0.00 | 0.00 | 0.00 | 78 | 1023.2 |
| 20260507055416 | 12 | 196 | 0.0 | 1.6 | 0.00 | 0.00 | 0.00 | 78 | 1023.0 |
| 20260507054908 | 12 | 199 | 1.6 | 3.2 | 0.00 | 0.00 | 0.00 | 78 | 1022.9 |
| 20260507054404 | 12 | 196 | 0.0 | 3.2 | 0.00 | 0.00 | 0.00 | 77 | 1022.9 |
| 20260507053901 | 12 | 203 | 0.0 | 0.0 | 0.00 | 0.00 | 0.00 | 77 | 1022.8 |
| 20260507053359 | 13 | 199 | 1.6 | 3.2 | 0.00 | 0.00 | 0.00 | 77 | 1023.1 |
| 20260507052858 | 13 | 217 | 0.0 | 3.2 | 0.00 | 0.00 | 0.00 | 77 | 1022.9 |
| 20260507052354 | 13 | 199 | 0.0 | 3.2 | 0.00 | 0.00 | 0.00 | 77 | 1022.9 |
| 20260507051852 | 13 | 205 | 0.0 | 3.2 | 0.00 | 0.00 | 0.00 | 77 | 1022.9 |
| 20260507051349 | 13 | 210 | 0.0 | 1.6 | 0.00 | 0.00 | 0.00 | 76 | 1023.0 |
| 20260507050846 | 13 | 203 | 3.2 | 4.8 | 0.00 | 0.00 | 0.00 | 76 | 1022.8 |
| 20260507050342 | 13 | 174 | 3.2 | 11.3 | 0.00 | 0.00 | 0.00 | 76 | 1023.0 |
| 20260507045839 | 13 | 220 | 1.6 | 3.2 | 0.00 | 0.00 | 0.00 | 76 | 1023.0 |
| 20260507045336 | 13 | 210 | 0.0 | 3.2 | 0.00 | 0.00 | 0.00 | 76 | 1023.2 |
| 20260507044833 | 13 | 202 | 0.0 | 3.2 | 0.00 | 0.00 | 0.00 | 76 | 1023.0 |
| 20260507044329 | 13 | 199 | 0.0 | 1.6 | 0.00 | 0.00 | 0.00 | 76 | 1022.9 |
| 20260507043825 | 13 | 176 | 1.6 | 4.8 | 0.00 | 0.00 | 0.00 | 76 | 1023.0 |
| 20260507043322 | 13 | 142 | 0.0 | 1.6 | 0.00 | 0.00 | 0.00 | 75 | 1023.0 |
| 20260507042818 | 13 | 196 | 0.0 | 4.8 | 0.00 | 0.00 | 0.00 | 75 | 1022.8 |
| 20260507042314 | 14 | 260 | 1.6 | 3.2 | 0.00 | 0.00 | 0.00 | 75 | 1022.8 |
| 20260507041811 | 14 | 213 | 0.0 | 3.2 | 0.00 | 0.00 | 0.00 | 75 | 1022.7 |
| 20260507041308 | 14 | 210 | 1.6 | 6.4 | 0.00 | 0.00 | 0.00 | 75 | 1022.8 |
| 20260507040805 | 14 | 296 | 4.8 | 6.4 | 0.00 | 0.00 | 0.00 | 75 | 1022.7 |
| 20260507040301 | 15 | 205 | 0.0 | 4.8 | 0.00 | 0.00 | 0.00 | 75 | 1022.7 |
| 20260507035757 | 15 | 202 | 1.6 | 4.8 | 0.00 | 0.00 | 0.00 | 75 | 1022.5 |
| 20260507035252 | 15 | 192 | 0.0 | 4.8 | 0.00 | 0.00 | 0.00 | 75 | 1022.4 |
| 20260507034750 | 15 | 260 | 3.2 | 3.2 | 0.00 | 0.00 | 0.00 | 75 | 1022.6 |
| 20260507034247 | 15 | 216 | 0.0 | 3.2 | 0.00 | 0.00 | 0.00 | 75 | 1022.3 |
| 20260507033746 | 15 | 197 | 0.0 | 1.6 | 0.00 | 0.00 | 0.00 | 75 | 1022.5 |
| 20260507033242 | 15 | 184 | 0.0 | 3.2 | 0.00 | 0.00 | 0.00 | 75 | 1022.4 |
| 20260507032739 | 15 | 217 | 1.6 | 3.2 | 0.00 | 0.00 | 0.00 | 75 | 1022.3 |
| 20260507032236 | 15 | 191 | 1.6 | 4.8 | 0.00 | 0.00 | 0.00 | 75 | 1022.3 |
| 20260507031732 | 15 | 179 | 1.6 | 3.2 | 0.00 | 0.00 | 0.00 | 75 | 1021.9 |
| 20260507031229 | 15 | 196 | 0.0 | 4.8 | 0.00 | 0.00 | 0.00 | 75 | 1021.8 |
| 20260507030726 | 15 | 191 | 0.0 | 3.2 | 0.00 | 0.00 | 0.00 | 75 | 1021.8 |
| 20260507030223 | 15 | 291 | 1.6 | 9.7 | 0.00 | 0.00 | 0.00 | 75 | 1021.9 |
| 20260507025720 | 15 | 191 | 0.0 | 4.8 | 0.00 | 0.00 | 0.00 | 74 | 1021.8 |
| 20260507025217 | 15 | 250 | 1.6 | 4.8 | 0.00 | 0.00 | 0.00 | 74 | 1021.7 |
| 20260507024716 | 16 | 205 | 1.6 | 4.8 | 0.00 | 0.00 | 0.00 | 73 | 1021.5 |
| 20260507024213 | 16 | 279 | 3.2 | 4.8 | 0.00 | 0.00 | 0.00 | 73 | 1021.5 |
| 20260507023708 | 16 | 201 | 0.0 | 0.0 | 0.00 | 0.00 | 0.00 | 72 | 1021.6 |
| 20260507023205 | 16 | 197 | 0.0 | 3.2 | 0.00 | 0.00 | 0.00 | 72 | 1021.5 |
| 20260507022702 | 16 | 196 | 0.0 | 3.2 | 0.00 | 0.00 | 0.00 | 71 | 1021.6 |
| 20260507022158 | 17 | 195 | 0.0 | 0.0 | 0.00 | 0.00 | 0.00 | 70 | 1021.5 |
| 20260507021655 | 17 | 193 | 1.6 | 3.2 | 0.00 | 0.00 | 0.00 | 70 | 1021.3 |
| 20260507021150 | 17 | 221 | 1.6 | 3.2 | 0.00 | 0.00 | 0.00 | 69 | 1021.7 |
| 20260507020649 | 17 | 200 | 0.0 | 1.6 | 0.00 | 0.00 | 0.00 | 69 | 1021.4 |
| 20260507020144 | 17 | 202 | 0.0 | 1.6 | 0.00 | 0.00 | 0.00 | 68 | 1021.7 |
| 20260507015643 | 17 | 221 | 0.0 | 3.2 | 0.00 | 0.00 | 0.00 | 68 | 1021.7 |
| 20260507015140 | 18 | 215 | 1.6 | 4.8 | 0.00 | 0.00 | 0.00 | 68 | 1021.8 |
| 20260507014636 | 18 | 200 | 0.0 | 1.6 | 0.00 | 0.00 | 0.00 | 68 | 1021.8 |
| 20260507014132 | 18 | 207 | 0.0 | 3.2 | 0.00 | 0.00 | 0.00 | 69 | 1021.6 |
| 20260507013629 | 18 | 213 | 0.0 | 3.2 | 0.00 | 0.00 | 0.00 | 68 | 1021.6 |
| 20260507013126 | 18 | 227 | 0.0 | 3.2 | 0.00 | 0.00 | 0.00 | 68 | 1021.6 |
| 20260507012624 | 18 | 190 | 0.0 | 4.8 | 0.00 | 0.00 | 0.00 | 67 | 1021.6 |
| 20260507012119 | 18 | 198 | 0.0 | 4.8 | 0.00 | 0.00 | 0.00 | 68 | 1021.5 |
| 20260507011618 | 18 | 154 | 1.6 | 4.8 | 0.00 | 0.00 | 0.00 | 67 | 1021.4 |
| 20260507011113 | 18 | 196 | 0.0 | 1.6 | 0.00 | 0.00 | 0.00 | 70 | 1021.3 |
| 20260507010608 | 19 | 191 | 0.0 | 0.0 | 0.00 | 0.00 | 0.00 | 69 | 1021.7 |
| 20260507010104 | 19 | 198 | 0.0 | 3.2 | 0.00 | 0.00 | 0.00 | 69 | 1021.6 |
| 20260507005602 | 19 | 218 | 1.6 | 3.2 | 0.00 | 0.00 | 0.00 | 68 | 1021.7 |
| 20260507005058 | 20 | 200 | 0.0 | 1.6 | 0.00 | 0.00 | 0.00 | 68 | 1021.5 |
| 20260507004555 | 19 | 205 | 0.0 | 3.2 | 0.00 | 0.00 | 0.00 | 68 | 1021.5 |
| 20260507004052 | 19 | 201 | 0.0 | 3.2 | 0.00 | 0.00 | 0.00 | 69 | 1021.6 |
| 20260507003548 | 19 | 201 | 0.0 | 4.8 | 0.00 | 0.00 | 0.00 | 68 | 1021.5 |
| 20260507003043 | 20 | 198 | 0.0 | 4.8 | 0.00 | 0.00 | 0.00 | 67 | 1021.4 |
| 20260507002540 | 20 | 194 | 0.0 | 0.0 | 0.00 | 0.00 | 0.00 | 67 | 1021.6 |
| 20260507002036 | 20 | 229 | 0.0 | 3.2 | 0.00 | 0.00 | 0.00 | 66 | 1021.5 |
| 20260507001532 | 20 | 240 | 0.0 | 3.2 | 0.00 | 0.00 | 0.00 | 66 | 1021.7 |
| 20260507001025 | 19 | 199 | 0.0 | 3.2 | 0.00 | 0.00 | 0.00 | 66 | 1021.8 |
| 20260507000521 | 19 | 212 | 1.6 | 1.6 | 0.00 | 0.00 | 0.00 | 66 | 1021.5 |
| 20260507000016 | 19 | 197 | 0.0 | 0.0 | 0.00 | 0.00 | 0.00 | 67 | 1021.3 |
| 20260506235514 | 19 | 199 | 0.0 | 0.0 | 0.00 | 0.00 | 0.00 | 67 | 1021.4 |
| 20260506235010 | 20 | 202 | 3.2 | 3.2 | 0.00 | 0.00 | 0.00 | 66 | 1021.4 |
| 20260506234507 | 20 | 202 | 0.0 | 4.8 | 0.00 | 0.00 | 0.00 | 66 | 1021.4 |
| 20260506234004 | 20 | 205 | 0.0 | 1.6 | 0.00 | 0.00 | 0.00 | 64 | 1021.6 |
| 20260506233501 | 20 | 204 | 0.0 | 0.0 | 0.00 | 0.00 | 0.00 | 66 | 1021.4 |
| 20260506232957 | 19 | 200 | 0.0 | 0.0 | 0.00 | 0.00 | 0.00 | 66 | 1021.5 |
| 20260506232454 | 19 | 229 | 0.0 | 0.0 | 0.00 | 0.00 | 0.00 | 64 | 1021.5 |
| 20260506231950 | 20 | 212 | 1.6 | 3.2 | 0.00 | 0.00 | 0.00 | 64 | 1021.3 |
| 20260506231447 | 20 | 176 | 1.6 | 1.6 | 0.00 | 0.00 | 0.00 | 65 | 1021.5 |
| 20260506230944 | 20 | 216 | 0.0 | 0.0 | 0.00 | 0.00 | 0.00 | 63 | 1021.5 |
| 20260506230440 | 20 | 193 | 0.0 | 0.0 | 0.00 | 0.00 | 0.00 | 64 | 1021.6 |
| 20260506225937 | 21 | 202 | 0.0 | 0.0 | 0.00 | 0.00 | 0.00 | 65 | 1021.7 |
| 20260506225435 | 20 | 202 | 0.0 | 1.6 | 0.00 | 0.00 | 0.00 | 64 | 1021.7 |
| 20260506224931 | 20 | 203 | 1.6 | 1.6 | 0.00 | 0.00 | 0.00 | 63 | 1021.7 |
| 20260506224429 | 20 | 207 | 0.0 | 0.0 | 0.00 | 0.00 | 0.00 | 66 | 1021.8 |
| 20260506223925 | 19 | 201 | 0.0 | 1.6 | 0.00 | 0.00 | 0.00 | 66 | 1021.8 |
| 20260506223420 | 18 | 205 | 0.0 | 1.6 | 0.00 | 0.00 | 0.00 | 68 | 1021.9 |
| 20260506222918 | 18 | 171 | 0.0 | 0.0 | 0.00 | 0.00 | 0.00 | 69 | 1021.8 |
| 20260506222414 | 18 | 161 | 0.0 | 0.0 | 0.00 | 0.00 | 0.00 | 67 | 1022.1 |
| 20260506221912 | 18 | 200 | 0.0 | 0.0 | 0.00 | 0.00 | 0.00 | 69 | 1022.0 |
| 20260506221408 | 18 | 202 | 0.0 | 0.0 | 0.00 | 0.00 | 0.00 | 72 | 1021.9 |
| 20260506220906 | 18 | 176 | 0.0 | 0.0 | 0.00 | 0.00 | 0.00 | 72 | 1022.0 |
| 20260506220402 | 18 | 212 | 0.0 | 1.6 | 0.00 | 0.00 | 0.00 | 71 | 1022.2 |
| 20260506215858 | 18 | 193 | 0.0 | 1.6 | 0.00 | 0.00 | 0.00 | 71 | 1022.2 |
| 20260506215354 | 18 | 203 | 0.0 | 0.0 | 0.00 | 0.00 | 0.00 | 70 | 1022.2 |
| 20260506214850 | 18 | 202 | 0.0 | 1.6 | 0.00 | 0.00 | 0.00 | 71 | 1022.2 |
| 20260506214347 | 18 | 206 | 0.0 | 0.0 | 0.00 | 0.00 | 0.00 | 71 | 1021.9 |
| 20260506213845 | 18 | 208 | 0.0 | 1.6 | 0.00 | 0.00 | 0.00 | 70 | 1022.2 |
| 20260506213342 | 18 | 202 | 0.0 | 0.0 | 0.00 | 0.00 | 0.00 | 69 | 1022.5 |
| 20260506212839 | 18 | 220 | 1.6 | 4.8 | 0.00 | 0.00 | 0.00 | 71 | 1022.1 |
| 20260506212336 | 18 | 232 | 1.6 | 4.8 | 0.00 | 0.00 | 0.00 | 71 | 1022.4 |
| 20260506211830 | 18 | 200 | 0.0 | 1.6 | 0.00 | 0.00 | 0.00 | 71 | 1022.5 |
| 20260506211327 | 18 | 200 | 0.0 | 0.0 | 0.00 | 0.00 | 0.00 | 72 | 1022.7 |
| 20260506210824 | 18 | 229 | 0.0 | 0.0 | 0.00 | 0.00 | 0.00 | 72 | 1022.7 |
| 20260506210321 | 17 | 228 | 0.0 | 1.6 | 0.00 | 0.00 | 0.00 | 74 | 1022.6 |
| 20260506205818 | 17 | 201 | 0.0 | 3.2 | 0.00 | 0.00 | 0.00 | 73 | 1022.7 |
| 20260506205314 | 17 | 213 | 0.0 | 0.0 | 0.00 | 0.00 | 0.00 | 74 | 1022.5 |
| 20260506204810 | 17 | 207 | 0.0 | 1.6 | 0.00 | 0.00 | 0.00 | 75 | 1022.7 |
| 20260506204308 | 17 | 224 | 0.0 | 1.6 | 0.00 | 0.00 | 0.00 | 74 | 1022.4 |
| 20260506203806 | 17 | 210 | 0.0 | 0.0 | 0.00 | 0.00 | 0.00 | 76 | 1022.4 |
| 20260506203303 | 17 | 182 | 0.0 | 0.0 | 0.00 | 0.00 | 0.00 | 75 | 1022.6 |
| 20260506202800 | 17 | 205 | 0.0 | 0.0 | 0.00 | 0.00 | 0.00 | 76 | 1022.5 |
| 20260506202257 | 17 | 197 | 0.0 | 1.6 | 0.00 | 0.00 | 0.00 | 75 | 1022.7 |
| 20260506201753 | 17 | 203 | 0.0 | 0.0 | 0.00 | 0.00 | 0.00 | 75 | 1022.4 |
| 20260506201250 | 17 | 194 | 0.0 | 0.0 | 0.00 | 0.00 | 0.00 | 75 | 1022.7 |
| 20260506200747 | 16 | 203 | 0.0 | 1.6 | 0.00 | 0.00 | 0.00 | 75 | 1022.6 |
| 20260506200244 | 16 | 202 | 0.0 | 3.2 | 0.00 | 0.00 | 0.00 | 76 | 1022.7 |
| 20260506195740 | 16 | 196 | 0.0 | 0.0 | 0.00 | 0.00 | 0.00 | 77 | 1022.6 |
| 20260506195236 | 16 | 216 | 0.0 | 1.6 | 0.00 | 0.00 | 0.00 | 77 | 1022.8 |
| 20260506194734 | 16 | 187 | 0.0 | 0.0 | 0.00 | 0.00 | 0.00 | 78 | 1022.7 |
| 20260506194230 | 16 | 206 | 0.0 | 0.0 | 0.00 | 0.00 | 0.00 | 78 | 1023.1 |
| 20260506193728 | 16 | 193 | 0.0 | 0.0 | 0.00 | 0.00 | 0.00 | 77 | 1023.1 |
| 20260506193225 | 16 | 203 | 0.0 | 0.0 | 0.00 | 0.00 | 0.00 | 77 | 1023.1 |
| 20260506192721 | 16 | 203 | 0.0 | 0.0 | 0.00 | 0.00 | 0.00 | 77 | 1022.9 |
| 20260506192218 | 16 | 209 | 0.0 | 0.0 | 0.00 | 0.00 | 0.00 | 78 | 1022.6 |
| 20260506191715 | 16 | 199 | 0.0 | 0.0 | 0.00 | 0.00 | 0.00 | 78 | 1022.9 |
| 20260506191211 | 16 | 222 | 0.0 | 0.0 | 0.00 | 0.00 | 0.00 | 77 | 1022.7 |
| 20260506190709 | 16 | 210 | 0.0 | 0.0 | 0.00 | 0.00 | 0.00 | 77 | 1022.9 |
| 20260506190205 | 16 | 187 | 0.0 | 0.0 | 0.00 | 0.00 | 0.00 | 78 | 1022.8 |
| 20260506185702 | 16 | 187 | 0.0 | 0.0 | 0.00 | 0.00 | 0.00 | 77 | 1022.8 |
| 20260506185158 | 16 | 201 | 0.0 | 0.0 | 0.00 | 0.00 | 0.00 | 77 | 1022.7 |
| 20260506184656 | 16 | 196 | 0.0 | 0.0 | 0.00 | 0.00 | 0.00 | 78 | 1022.9 |
| 20260506184153 | 16 | 197 | 0.0 | 0.0 | 0.00 | 0.00 | 0.00 | 78 | 1022.7 |
| 20260506183650 | 15 | 194 | 0.0 | 0.0 | 0.00 | 0.00 | 0.00 | 80 | 1022.8 |
| 20260506183145 | 15 | 211 | 0.0 | 0.0 | 0.00 | 0.00 | 0.00 | 79 | 1022.7 |
| 20260506182643 | 15 | 207 | 0.0 | 0.0 | 0.00 | 0.00 | 0.00 | 79 | 1022.9 |
| 20260506182140 | 15 | 193 | 0.0 | 0.0 | 0.00 | 0.00 | 0.00 | 81 | 1022.8 |
| 20260506181638 | 15 | 203 | 0.0 | 0.0 | 0.00 | 0.00 | 0.00 | 81 | 1022.8 |
| 20260506181135 | 15 | 215 | 0.0 | 0.0 | 0.00 | 0.00 | 0.00 | 80 | 1022.9 |
| 20260506180632 | 15 | 207 | 0.0 | 0.0 | 0.00 | 0.00 | 0.00 | 80 | 1022.8 |
| 20260506180128 | 15 | 207 | 0.0 | 0.0 | 0.00 | 0.00 | 0.00 | 79 | 1022.7 |
| 20260506175624 | 15 | 202 | 0.0 | 0.0 | 0.00 | 0.00 | 0.00 | 79 | 1022.7 |
| 20260506175120 | 15 | 205 | 0.0 | 1.6 | 0.00 | 0.00 | 0.00 | 79 | 1023.0 |
| 20260506174620 | 15 | 219 | 0.0 | 1.6 | 0.00 | 0.00 | 0.00 | 79 | 1022.9 |
| 20260506174116 | 15 | 203 | 0.0 | 0.0 | 0.00 | 0.00 | 0.00 | 81 | 1022.4 |
| 20260506173614 | 15 | 202 | 0.0 | 0.0 | 0.00 | 0.00 | 0.00 | 81 | 1022.5 |
| 20260506173110 | 15 | 202 | 0.0 | 0.0 | 0.00 | 0.00 | 0.00 | 81 | 1022.8 |
| 20260506172608 | 15 | 199 | 0.0 | 0.0 | 0.00 | 0.00 | 0.00 | 81 | 1022.7 |
| 20260506172103 | 15 | 207 | 0.0 | 0.0 | 0.00 | 0.00 | 0.00 | 81 | 1022.6 |
| 20260506171601 | 15 | 199 | 0.0 | 0.0 | 0.00 | 0.00 | 0.00 | 81 | 1022.4 |
| 20260506171058 | 15 | 199 | 0.0 | 0.0 | 0.00 | 0.00 | 0.00 | 81 | 1022.6 |
| 20260506170555 | 15 | 202 | 0.0 | 0.0 | 0.00 | 0.00 | 0.00 | 81 | 1022.4 |
| 20260506170047 | 15 | 205 | 0.0 | 0.0 | 0.00 | 0.00 | 0.00 | 80 | 1022.5 |
| 20260506165545 | 15 | 202 | 0.0 | 0.0 | 0.00 | 0.00 | 0.00 | 81 | 1022.5 |
| 20260506165036 | 15 | 199 | 0.0 | 0.0 | 0.00 | 0.00 | 0.00 | 81 | 1022.3 |
| 20260506164533 | 15 | 200 | 0.0 | 1.6 | 0.00 | 0.00 | 0.00 | 80 | 1022.5 |
| 20260506164030 | 15 | 201 | 0.0 | 0.0 | 0.00 | 0.00 | 0.00 | 80 | 1022.4 |
| 20260506163526 | 15 | 226 | 0.0 | 0.0 | 0.00 | 0.00 | 0.00 | 80 | 1022.4 |
| 20260506163022 | 15 | 205 | 0.0 | 0.0 | 0.00 | 0.00 | 0.00 | 80 | 1022.4 |
| 20260506162518 | 15 | 205 | 0.0 | 0.0 | 0.00 | 0.00 | 0.00 | 80 | 1022.1 |
| 20260506162015 | 15 | 212 | 0.0 | 1.6 | 0.00 | 0.00 | 0.00 | 81 | 1022.2 |
| 20260506161513 | 15 | 204 | 0.0 | 0.0 | 0.00 | 0.00 | 0.00 | 81 | 1022.2 |
| 20260506161009 | 15 | 204 | 0.0 | 0.0 | 0.00 | 0.00 | 0.00 | 81 | 1022.2 |
| 20260506160507 | 14 | 205 | 0.0 | 0.0 | 0.00 | 0.00 | 0.00 | 82 | 1022.0 |
| 20260506160004 | 14 | 208 | 0.0 | 1.6 | 0.00 | 0.00 | 0.00 | 81 | 1021.7 |
| 20260506155502 | 14 | 224 | 3.2 | 3.2 | 0.00 | 0.00 | 0.00 | 81 | 1021.9 |
| 20260506153634 | 13 | 199 | 0.0 | 0.0 | 0.00 | 0.00 | 0.00 | 85 | 1022.5 |
| 20260506153132 | 13 | 202 | 0.0 | 0.0 | 0.00 | 0.00 | 0.00 | 84 | 1022.7 |
| 20260506152628 | 13 | 205 | 0.0 | 1.6 | 0.00 | 0.00 | 0.00 | 85 | 1022.5 |
| 20260506152126 | 13 | 200 | 0.0 | 1.6 | 0.00 | 0.00 | 0.00 | 84 | 1022.7 |
| 20260506151625 | 13 | 207 | 0.0 | 1.6 | 0.00 | 0.00 | 0.00 | 84 | 1022.7 |
| 20260506151121 | 13 | 189 | 0.0 | 0.0 | 0.00 | 0.00 | 0.00 | 84 | 1022.6 |
| 20260506150618 | 13 | 202 | 0.0 | 0.0 | 0.00 | 0.00 | 0.00 | 85 | 1022.4 |
| 20260506150115 | 13 | 202 | 0.0 | 1.6 | 0.00 | 0.00 | 0.00 | 85 | 1022.4 |
| 20260506145612 | 13 | 202 | 1.6 | 3.2 | 0.00 | 0.00 | 0.00 | 85 | 1022.1 |
| 20260506145109 | 13 | 203 | 0.0 | 4.8 | 0.00 | 0.00 | 0.00 | 85 | 1022.3 |
| 20260506144606 | 13 | 207 | 0.0 | 1.6 | 0.00 | 0.00 | 0.00 | 85 | 1022.3 |
| 20260506144102 | 13 | 201 | 0.0 | 3.2 | 0.00 | 0.00 | 0.00 | 85 | 1022.2 |
| 20260506143601 | 13 | 227 | 1.6 | 3.2 | 0.00 | 0.00 | 0.00 | 85 | 1022.0 |
| 20260506143058 | 13 | 219 | 0.0 | 0.0 | 0.00 | 0.00 | 0.00 | 84 | 1022.0 |
| 20260506142556 | 13 | 198 | 0.0 | 0.0 | 0.00 | 0.00 | 0.00 | 85 | 1022.0 |
| 20260506142054 | 13 | 214 | 0.0 | 0.0 | 0.00 | 0.00 | 0.00 | 85 | 1021.5 |
| 20260506141551 | 13 | 214 | 0.0 | 0.0 | 0.00 | 0.00 | 0.00 | 85 | 1021.8 |
| 20260506141049 | 13 | 205 | 0.0 | 0.0 | 0.00 | 0.00 | 0.00 | 85 | 1021.8 |
| 20260506140547 | 13 | 201 | 0.0 | 0.0 | 0.00 | 0.00 | 0.00 | 85 | 1021.8 |
| 20260506140044 | 13 | 205 | 0.0 | 0.0 | 0.00 | 0.00 | 0.00 | 86 | 1021.6 |
| 20260506135541 | 13 | 205 | 0.0 | 0.0 | 0.00 | 0.00 | 0.00 | 86 | 1021.6 |
| 20260506135037 | 13 | 205 | 0.0 | 0.0 | 0.00 | 0.00 | 0.00 | 86 | 1021.5 |
| 20260506134534 | 13 | 205 | 0.0 | 0.0 | 0.00 | 0.00 | 0.00 | 86 | 1021.6 |
| 20260506134029 | 13 | 201 | 0.0 | 0.0 | 0.00 | 0.00 | 0.00 | 86 | 1021.4 |
| 20260506133527 | 13 | 201 | 0.0 | 0.0 | 0.00 | 0.00 | 0.00 | 86 | 1021.3 |
| 20260506133024 | 13 | 201 | 0.0 | 0.0 | 0.00 | 0.00 | 0.00 | 86 | 1021.6 |
| 20260506132521 | 13 | 201 | 0.0 | 0.0 | 0.00 | 0.00 | 0.00 | 86 | 1021.7 |
| 20260506132018 | 13 | 205 | 0.0 | 0.0 | 0.00 | 0.00 | 0.00 | 86 | 1021.4 |
| 20260506131515 | 13 | 202 | 0.0 | 0.0 | 0.00 | 0.00 | 0.00 | 86 | 1021.0 |
| 20260506131012 | 13 | 202 | 0.0 | 0.0 | 0.00 | 0.00 | 0.00 | 86 | 1021.2 |
| 20260506130508 | 13 | 202 | 0.0 | 0.0 | 0.00 | 0.00 | 0.00 | 86 | 1021.1 |
| 20260506130006 | 13 | 201 | 0.0 | 0.0 | 0.00 | 0.00 | 0.00 | 86 | 1021.0 |
| 20260506125504 | 13 | 202 | 0.0 | 0.0 | 0.00 | 0.00 | 0.00 | 86 | 1021.1 |
| 20260506125002 | 13 | 202 | 0.0 | 0.0 | 0.00 | 0.00 | 0.00 | 86 | 1021.1 |
| 20260506124459 | 13 | 202 | 0.0 | 0.0 | 0.00 | 0.00 | 0.00 | 86 | 1021.1 |
| 20260506123957 | 13 | 202 | 0.0 | 0.0 | 0.00 | 0.00 | 0.00 | 86 | 1021.0 |
| 20260506123455 | 13 | 202 | 0.0 | 0.0 | 0.00 | 0.00 | 0.00 | 85 | 1021.1 |
| 20260506122952 | 13 | 202 | 0.0 | 0.0 | 0.00 | 0.00 | 0.00 | 85 | 1021.2 |
| 20260506122449 | 13 | 201 | 0.0 | 0.0 | 0.00 | 0.00 | 0.00 | 85 | 1021.2 |
| 20260506121947 | 13 | 205 | 0.0 | 0.0 | 0.00 | 0.00 | 0.00 | 85 | 1021.1 |
| 20260506121444 | 13 | 205 | 0.0 | 0.0 | 0.00 | 0.00 | 0.00 | 85 | 1020.9 |
| 20260506120940 | 13 | 205 | 0.0 | 0.0 | 0.00 | 0.00 | 0.00 | 85 | 1020.9 |
| 20260506120438 | 13 | 221 | 0.0 | 0.0 | 0.00 | 0.00 | 0.00 | 85 | 1021.0 |
| 20260506115936 | 13 | 203 | 0.0 | 0.0 | 0.00 | 0.00 | 0.00 | 85 | 1020.9 |
| 20260506115434 | 13 | 203 | 0.0 | 0.0 | 0.00 | 0.00 | 0.00 | 85 | 1020.8 |
| 20260506114931 | 13 | 203 | 0.0 | 0.0 | 0.00 | 0.00 | 0.00 | 85 | 1020.6 |
| 20260506114429 | 13 | 205 | 0.0 | 0.0 | 0.00 | 0.00 | 0.00 | 85 | 1020.7 |
| 20260506113927 | 13 | 201 | 0.0 | 0.0 | 0.00 | 0.00 | 0.00 | 85 | 1020.5 |
| 20260506113425 | 13 | 207 | 0.0 | 0.0 | 0.00 | 0.00 | 0.00 | 84 | 1020.9 |
| 20260506112921 | 13 | 199 | 0.0 | 0.0 | 0.00 | 0.00 | 0.00 | 84 | 1020.7 |
| 20260506112419 | 13 | 205 | 0.0 | 0.0 | 0.00 | 0.00 | 0.00 | 84 | 1020.9 |
| 20260506111916 | 13 | 202 | 0.0 | 0.0 | 0.00 | 0.00 | 0.00 | 84 | 1020.4 |
| 20260506111414 | 13 | 210 | 0.0 | 0.0 | 0.00 | 0.00 | 0.00 | 84 | 1020.5 |
| 20260506110911 | 13 | 204 | 0.0 | 0.0 | 0.00 | 0.00 | 0.00 | 84 | 1020.6 |